This is the latest recevied weather packets stored in our database for station/object ZL1CTS-13. If no packets are shown the sender has not sent any weather packets the latest 10 day(s).
| Time | Temp. | Humidity | Pressure | Rain* | Wind** | Luminosity | Snow |
|---|---|---|---|---|---|---|---|
| 1788058804 | 17.22° C | 81% | 995.3 hPa | 0 mm | - | - | - |
| 1788058504 | 17.22° C | 80% | 995.2 hPa | 0 mm | - | - | - |
| 1788058204 | 17.78° C | 81% | 995.1 hPa | 0 mm | - | - | - |
| 1788057904 | 17.22° C | 80% | 995.1 hPa | 0 mm | - | - | - |
| 1788057604 | 16.67° C | 80% | 995.1 hPa | 0 mm | - | - | - |
| 1788057304 | 17.22° C | 81% | 995 hPa | 0 mm | - | - | - |
| 1788057004 | 16.67° C | 84% | 995.1 hPa | 0 mm | - | - | - |
| 1788056704 | 15.56° C | 84% | 994.8 hPa | 0 mm | - | - | - |
| 1788056404 | 16.11° C | 82% | 994.9 hPa | 0 mm | - | - | - |
| 1788056105 | 17.22° C | 80% | 994.9 hPa | 0 mm | - | - | - |
| 1788055804 | 17.78° C | 79% | 994.9 hPa | 0 mm | - | - | - |
| 1788055504 | 17.78° C | 77% | 994.9 hPa | 0 mm | - | - | - |
| 1788055204 | 17.78° C | 77% | 994.9 hPa | 0 mm | - | - | - |
| 1788054904 | 17.78° C | 75% | 994.8 hPa | 0 mm | - | - | - |
| 1788054604 | 18.33° C | 74% | 995 hPa | 0 mm | - | - | - |
| 1788054304 | 18.33° C | 72% | 994.7 hPa | 0 mm | - | - | - |
| 1788054004 | 18.89° C | 71% | 994.7 hPa | 0 mm | - | - | - |
| 1788053704 | 19.44° C | 68% | 994.7 hPa | 0 mm | - | - | - |
| 1788053406 | 19.44° C | 73% | 994.8 hPa | 0 mm | - | - | - |
| 1788053104 | 18.33° C | 75% | 994.8 hPa | 0 mm | - | - | - |
| 1788052804 | 17.22° C | 74% | 995 hPa | 0 mm | - | - | - |
| 1788052504 | 16.67° C | 74% | 995 hPa | 0 mm | - | - | - |
| 1788052204 | 17.22° C | 72% | 995.1 hPa | 0 mm | - | - | - |
| 1788051904 | 17.22° C | 71% | 995.2 hPa | 0 mm | - | - | - |
| 1788051604 | 17.78° C | 72% | 995.4 hPa | 0 mm | - | - | - |
* Rain latest hour (hover to see other rain measurements)
** Current wind speed in m/s (hover to see current wind gust speed)